When you browse on this site, cookies collect data to enhance your experience and personalize the content and advertising you see.
Visit our Privacy Policy to learn more. By continuing to use the site, you agree to this use of cookies and data.
  • Em Portugal
  • Lista de países
  • Para 7 dias
  • Temperatura da água
  • Mapas de satélite
  • Mapa do tempo
  • Widgets de tempo
  • user-avatar
    Iniciar Sessão

    Previsão horária em Galata

    Hoje, 20 Novembro, Terça-feira

    Tempo Temperatura Precipitação Vento Pressão Humidade
    00:00 0°C° 0 mm 4 m/s 759 mmHg 89%
    01:00 0°C° 0 mm 4 m/s 759 mmHg 89%
    02:00 +1°C° 0 mm 3 m/s 759 mmHg 89%
    03:00 +1°C° 0 mm 3 m/s 759 mmHg 89%
    04:00 +1°C° 0 mm 3 m/s 760 mmHg 89%
    05:00 +1°C° 0 mm 3 m/s 760 mmHg 89%
    06:00 0°C° 0 mm 4 m/s 760 mmHg 88%
    07:00 0°C° 0 mm 4 m/s 760 mmHg 87%
    08:00 0°C° 0 mm 4 m/s 760 mmHg 85%
    09:00 +1°C° 0 mm 4 m/s 760 mmHg 80%
    10:00 +3°C° 0 mm 3 m/s 760 mmHg 74%
    11:00 +4°C° 0 mm 3 m/s 760 mmHg 68%
    12:00 +5°C° 0 mm 3 m/s 760 mmHg 68%
    13:00 +5°C° 0 mm 3 m/s 760 mmHg 67%
    14:00 +6°C° 0 mm 4 m/s 760 mmHg 67%
    15:00 +5°C° 0.1 mm 4 m/s 759 mmHg 71%
    16:00 +5°C° 0.1 mm 4 m/s 759 mmHg 75%
    17:00 +5°C° 0.1 mm 4 m/s 759 mmHg 79%
    18:00 +5°C° 0.3 mm 4 m/s 759 mmHg 82%
    19:00 +5°C° 0.3 mm 5 m/s 759 mmHg 84%
    20:00 +5°C° 0.3 mm 5 m/s 758 mmHg 86%
    21:00 +6°C° 0.8 mm 5 m/s 758 mmHg 88%
    22:00 +6°C° 0.8 mm 5 m/s 758 mmHg 90%
    23:00 +6°C° 0.8 mm 5 m/s 758 mmHg 92%

    Amanhã, 21 Novembro, Quarta-feira

    Tempo Temperatura Precipitação Vento Pressão Humidade
    00:00 +5°C° 1.2 mm 6 m/s 757 mmHg 93%
    01:00 +5°C° 1.2 mm 6 m/s 757 mmHg 94%
    02:00 +7°C° 1.2 mm 6 m/s 757 mmHg 95%
    03:00 +7°C° 0.9 mm 6 m/s 756 mmHg 95%
    04:00 +7°C° 0.9 mm 6 m/s 756 mmHg 95%
    05:00 +7°C° 0.9 mm 6 m/s 755 mmHg 95%
    06:00 +7°C° 0.9 mm 6 m/s 755 mmHg 95%
    07:00 +6°C° 0.9 mm 7 m/s 755 mmHg 95%
    08:00 +8°C° 0.9 mm 7 m/s 755 mmHg 94%
    09:00 +8°C° 1.1 mm 7 m/s 755 mmHg 94%
    10:00 +8°C° 1.1 mm 7 m/s 755 mmHg 94%
    11:00 +8°C° 1.1 mm 7 m/s 755 mmHg 93%
    12:00 +8°C° 1.1 mm 7 m/s 754 mmHg 93%
    13:00 +7°C° 1.1 mm 8 m/s 754 mmHg 92%
    14:00 +7°C° 1.1 mm 8 m/s 754 mmHg 91%
    15:00 +7°C° 0.7 mm 8 m/s 754 mmHg 91%
    16:00 +7°C° 0.7 mm 9 m/s 754 mmHg 90%
    17:00 +7°C° 0.7 mm 9 m/s 754 mmHg 90%
    18:00 +7°C° 0.6 mm 9 m/s 755 mmHg 89%
    19:00 +6°C° 0.6 mm 9 m/s 755 mmHg 88%
    20:00 +6°C° 0.6 mm 9 m/s 756 mmHg 88%
    21:00 +6°C° 0.4 mm 9 m/s 756 mmHg 87%
    22:00 +5°C° 0.4 mm 10 m/s 756 mmHg 87%
    23:00 +5°C° 0.4 mm 10 m/s 757 mmHg 86%

    Depois de amanhã, 22 Novembro, Quinta-feira

    Tempo Temperatura Precipitação Vento Pressão Humidade
    00:00 +3°C° 0.3 mm 10 m/s 757 mmHg 86%
    01:00 +3°C° 0.3 mm 10 m/s 757 mmHg 85%
    02:00 +2°C° 0.3 mm 9 m/s 757 mmHg 85%
    03:00 +2°C° 0.2 mm 9 m/s 758 mmHg 85%
    04:00 +2°C° 0.2 mm 9 m/s 758 mmHg 84%
    05:00 +1°C° 0.2 mm 9 m/s 758 mmHg 84%
    06:00 +1°C° 0.1 mm 8 m/s 759 mmHg 84%
    07:00 +1°C° 0.1 mm 8 m/s 759 mmHg 84%
    08:00 +1°C° 0.1 mm 8 m/s 760 mmHg 84%
    09:00 +1°C° 0 mm 8 m/s 760 mmHg 82%
    10:00 +2°C° 0 mm 7 m/s 760 mmHg 80%
    11:00 +2°C° 0 mm 7 m/s 761 mmHg 79%
    12:00 +3°C° 0 mm 7 m/s 761 mmHg 76%
    13:00 +3°C° 0 mm 7 m/s 761 mmHg 72%
    14:00 +4°C° 0 mm 7 m/s 761 mmHg 69%
    15:00 +3°C° 0 mm 6 m/s 761 mmHg 70%
    16:00 +3°C° 0 mm 6 m/s 761 mmHg 70%
    17:00 +2°C° 0 mm 5 m/s 762 mmHg 71%
    18:00 +2°C° 0 mm 5 m/s 762 mmHg 71%
    19:00 +1°C° 0 mm 5 m/s 762 mmHg 71%
    20:00 +1°C° 0 mm 5 m/s 763 mmHg 71%
    21:00 0°C° 0 mm 5 m/s 763 mmHg 73%
    22:00 0°C° 0 mm 5 m/s 763 mmHg 74%
    23:00 -1°C° 0 mm 4 m/s 763 mmHg 76%

    23 Novembro, Sexta-feira

    Tempo Temperatura Precipitação Vento Pressão Humidade
    00:00 -1°C° 0 mm 4 m/s 763 mmHg 77%
    01:00 -1°C° 0 mm 4 m/s 763 mmHg 78%
    02:00 -2°C° 0 mm 4 m/s 763 mmHg 79%
    03:00 -2°C° 0 mm 4 m/s 763 mmHg 80%
    04:00 -2°C° 0 mm 4 m/s 764 mmHg 81%
    05:00 -2°C° 0 mm 5 m/s 764 mmHg 82%
    06:00 -2°C° 0 mm 4 m/s 764 mmHg 82%
    07:00 -2°C° 0 mm 4 m/s 764 mmHg 81%
    08:00 -2°C° 0 mm 4 m/s 765 mmHg 80%
    09:00 -1°C° 0 mm 4 m/s 765 mmHg 73%
    10:00 +1°C° 0 mm 4 m/s 765 mmHg 65%
    11:00 +3°C° 0 mm 4 m/s 765 mmHg 58%
    12:00 +4°C° 0 mm 4 m/s 765 mmHg 56%
    13:00 +4°C° 0 mm 4 m/s 765 mmHg 54%
    14:00 +5°C° 0 mm 4 m/s 765 mmHg 52%
    15:00 +4°C° 0 mm 4 m/s 765 mmHg 56%
    16:00 +3°C° 0 mm 4 m/s 765 mmHg 60%
    17:00 +1°C° 0 mm 4 m/s 765 mmHg 63%
    18:00 +1°C° 0 mm 4 m/s 766 mmHg 65%
    19:00 0°C° 0 mm 4 m/s 766 mmHg 67%
    20:00 0°C° 0 mm 4 m/s 766 mmHg 69%
    21:00 0°C° 0 mm 3 m/s 766 mmHg 69%
    22:00 0°C° 0 mm 3 m/s 766 mmHg 70%
    23:00 0°C° 0 mm 3 m/s 766 mmHg 70%

    24 Novembro, Sábado

    Tempo Temperatura Precipitação Vento Pressão Humidade
    00:00 0°C° 0 mm 3 m/s 766 mmHg 70%
    01:00 0°C° 0 mm 3 m/s 766 mmHg 70%
    02:00 0°C° 0 mm 3 m/s 766 mmHg 70%
    03:00 0°C° 0 mm 3 m/s 765 mmHg 69%
    04:00 0°C° 0 mm 3 m/s 765 mmHg 69%
    05:00 -1°C° 0 mm 3 m/s 765 mmHg 68%
    06:00 0°C° 0 mm 3 m/s 765 mmHg 67%
    07:00 0°C° 0 mm 3 m/s 765 mmHg 66%
    08:00 +1°C° 0 mm 2 m/s 765 mmHg 65%
    09:00 +3°C° 0 mm 2 m/s 765 mmHg 63%
    10:00 +4°C° 0 mm 2 m/s 765 mmHg 61%
    11:00 +6°C° 0 mm 2 m/s 765 mmHg 59%
    12:00 +6°C° 0 mm 2 m/s 764 mmHg 60%
    13:00 +7°C° 0 mm 2 m/s 764 mmHg 61%
    14:00 +8°C° 0 mm 2 m/s 763 mmHg 62%
    15:00 +7°C° 0 mm 2 m/s 763 mmHg 68%
    16:00 +6°C° 0 mm 2 m/s 763 mmHg 75%
    17:00 +5°C° 0 mm 2 m/s 762 mmHg 81%
    18:00 +6°C° 0 mm 1 m/s 762 mmHg 84%
    19:00 +5°C° 0 mm 1 m/s 762 mmHg 86%
    20:00 +5°C° 0 mm 1 m/s 762 mmHg 89%
    21:00 +5°C° 0 mm 1 m/s 762 mmHg 90%
    22:00 +5°C° 0 mm 1 m/s 762 mmHg 91%
    23:00 +5°C° 0 mm 1 m/s 762 mmHg 92%

    25 Novembro, Domingo

    Tempo Temperatura Precipitação Vento Pressão Humidade
    00:00 +5°C° 0 mm 1 m/s 761 mmHg 92%
    01:00 +5°C° 0 mm 1 m/s 761 mmHg 92%
    02:00 +4°C° 0 mm 2 m/s 761 mmHg 92%
    03:00 +4°C° 0 mm 2 m/s 760 mmHg 91%
    04:00 +4°C° 0 mm 2 m/s 760 mmHg 91%
    05:00 +4°C° 0 mm 2 m/s 760 mmHg 90%
    06:00 +3°C° 0 mm 3 m/s 760 mmHg 89%
    07:00 +3°C° 0 mm 3 m/s 760 mmHg 87%
    08:00 +3°C° 0 mm 3 m/s 760 mmHg 86%
    09:00 +4°C° 0 mm 3 m/s 759 mmHg 78%
    10:00 +6°C° 0 mm 4 m/s 759 mmHg 71%
    11:00 +8°C° 0 mm 4 m/s 759 mmHg 63%
    12:00 +8°C° 0 mm 4 m/s 759 mmHg 61%
    13:00 +10°C° 0 mm 4 m/s 758 mmHg 59%
    14:00 +11°C° 0 mm 4 m/s 758 mmHg 57%
    15:00 +10°C° 0 mm 4 m/s 757 mmHg 62%
    16:00 +8°C° 0 mm 4 m/s 757 mmHg 67%
    17:00 +7°C° 0 mm 4 m/s 757 mmHg 73%
    18:00 +7°C° 0 mm 4 m/s 757 mmHg 74%
    19:00 +7°C° 0 mm 4 m/s 757 mmHg 76%
    20:00 +6°C° 0 mm 4 m/s 756 mmHg 78%
    21:00 +6°C° 0 mm 4 m/s 756 mmHg 79%
    22:00 +6°C° 0 mm 4 m/s 756 mmHg 81%
    23:00 +6°C° 0 mm 4 m/s 756 mmHg 82%
    Mostrar mais